RH
79 83 88 91 89 87 81 77 74 74 74 70 64 51 43 48 53 56 64 75 76 76 80 73 60 47 44 49 54 62 58 57 64 66 66 65 62 61 58 56 54 52 49 47 44 40 37 38 41 41 46 49 45 51 58 54 49 53 59 61 66 67
77 85 89 90 87 82 79 80 79 77 75 65 50 45 56 70 72 70 74 78 75 71 72 78 75 62 57 49 43 47 49 53 58 60 60 58 57 54 52 50 48 46 44 41 35 39 48 46 44 43 45 46 48 56 56 55 59 62 62 66 71 66
75 86 89 88 87 81 82 86 86 84 81 67 52 59 75 79 73 69 73 72 72 72 71 78 77 73 71 51 34 37 43 49 52 54 52 48 46 43 42 41 39 37 34 33 36 50 59 55 51 48 48 49 53 57 55 60 66 64 69 76 74 66
72 85 88 87 87 83 84 83 81 82 81 76 68 70 71 67 64 62 66 70 75 78 79 82 72 66 67 51 33 31 36 41 44 43 42 45 45 40 38 36 30 30 36 43 49 52 47 47 52 51 53 54 55 56 56 65 68 68 78 83 76 70
72 79 81 83 85 84 83 76 73 75 75 74 66 65 65 64 65 65 70 76 81 81 79 80 76 76 80 74 61 52 50 52 55 50 50 63 65 57 55 52 43 42 50 52 51 50 46 49 53 52 54 54 55 57 57 63 68 73 86 90 84 78
72 75 74 75 81 84 79 71 69 72 72 67 59 62 66 66 69 74 77 78 80 78 77 79 82 86 85 82 80 75 72 72 75 68 65 75 75 69 68 63 56 56 58 55 54 57 59 60 58 55 54 53 54 56 56 60 69 76 88 97 92 85
72 74 72 70 76 79 74 69 69 70 68 60 58 64 66 66 70 78 80 78 79 78 78 80 81 83 80 78 80 79 78 77 77 73 70 73 71 70 70 64 60 60 60 59 60 60 61 63 61 57 54 53 54 56 57 59 68 77 85 94 95 91
73 73 73 70 72 72 70 69 72 71 63 57 58 64 66 66 70 76 80 80 81 79 77 78 80 81 78 74 74 76 76 74 75 73 71 71 70 70 68 66 66 64 61 59 59 60 60 59 60 58 55 54 54 55 59 60 65 74 79 87 97 98
71 71 72 74 70 68 70 71 74 69 61 60 60 61 65 68 70 73 79 82 84 85 77 73 78 79 76 76 76 78 77 73 75 75 74 73 71 70 69 67 66 62 59 58 57 59 59 56 56 55 52 54 57 58 59 61 64 72 76 84 94 94
66 71 72 74 69 68 71 74 74 66 60 63 63 65 66 67 69 69 76 83 83 88 83 74 77 77 77 81 79 79 80 76 76 76 76 74 70 69 68 65 64 61 57 57 57 58 58 56 53 51 50 52 58 60 59 57 58 65 71 78 86 82
64 72 73 71 68 71 73 74 71 64 62 65 68 70 67 66 68 68 76 81 79 85 84 79 82 79 78 80 77 78 80 78 77 75 73 72 71 69 66 64 63 63 62 60 60 60 59 57 52 49 51 53 56 58 58 56 54 58 62 67 79 80
64 72 75 70 70 74 74 74 71 65 65 68 71 68 64 67 68 69 78 81 81 86 86 86 87 84 83 80 79 79 78 79 78 75 75 76 77 74 70 68 67 67 67 64 64 64 61 60 57 52 52 54 55 54 56 58 56 57 58 58 66 74
67 75 77 72 73 76 74 74 71 66 67 71 70 64 64 69 67 72 79 80 84 87 89 89 83 80 87 87 85 84 80 79 79 81 83 84 82 77 73 71 69 67 66 65 65 66 65 63 61 58 56 56 56 55 55 57 59 59 60 59 58 63
72 79 79 75 76 76 75 74 69 66 71 73 69 67 69 69 69 72 75 82 87 86 89 88 79 78 87 92 87 87 87 82 83 86 86 86 81 74 72 70 69 67 66 65 64 65 65 62 59 57 57 57 58 58 55 54 56 59 61 63 62 60
76 81 79 79 78 76 76 73 67 68 73 73 69 71 73 70 69 70 74 84 88 87 88 84 82 81 87 91 82 82 90 86 84 84 84 85 78 72 73 72 72 73 71 65 63 62 57 59 60 58 58 57 59 58 55 54 53 53 57 59 61 62
79 81 80 81 79 78 78 72 69 70 74 75 71 71 73 70 69 73 76 81 86 91 88 84 87 87 87 89 82 85 92 88 85 84 83 81 74 71 71 71 73 77 75 67 62 58 55 63 67 63 61 58 59 56 52 53 52 51 53 53 54 55
79 80 79 82 83 82 79 75 73 72 76 78 73 72 73 71 72 76 78 79 87 93 89 88 90 90 90 88 86 89 89 86 84 83 82 78 73 72 71 72 73 74 76 71 60 54 58 67 69 65 63 61 60 56 52 51 49 49 49 49 47 45
78 78 78 84 88 84 79 77 75 74 78 78 76 79 77 74 76 79 80 82 89 91 90 92 90 90 91 86 85 87 84 84 82 81 80 75 73 75 76 78 76 75 79 74 64 57 60 67 66 63 63 63 60 54 51 49 46 46 46 45 43 40
77 77 79 84 86 82 79 78 76 78 80 77 78 85 84 81 81 81 84 89 92 91 91 93 91 90 87 82 82 83 83 81 79 80 79 72 69 71 77 76 72 76 77 73 70 64 65 67 63 61 64 66 63 56 52 48 46 44 43 42 40 39
78 79 80 82 81 80 80 77 77 79 78 76 77 81 84 85 84 83 88 93 93 92 89 89 88 86 83 81 80 80 83 82 79 80 80 77 73 72 77 74 69 76 72 67 69 66 68 70 65 65 68 69 66 61 56 50 46 41 39 38 37 38
80 83 82 79 75 78 80 78 78 76 73 74 75 78 86 88 85 88 92 93 93 91 88 86 84 82 82 82 80 80 83 82 79 79 81 82 79 78 79 74 71 76 72 68 68 64 66 69 67 67 71 71 68 63 57 51 46 40 36 35 36 39
82 85 83 77 73 76 77 75 76 72 68 69 71 77 86 87 87 90 93 92 91 89 85 83 82 82 83 83 82 83 83 81 79 76 78 79 78 78 73 69 71 71 68 69 72 67 65 67 63 62 65 66 65 62 57 50 44 41 37 35 37 39
84 85 81 76 75 77 77 75 72 68 67 70 77 83 84 85 89 92 92 90 87 85 83 82 81 81 83 84 84 84 83 81 78 75 73 70 72 75 71 71 73 68 62 63 68 69 71 73 66 61 59 57 60 64 61 49 40 39 38 36 37 39
85 85 80 75 75 78 80 79 75 73 74 77 84 89 88 91 95 94 91 89 88 85 82 82 80 78 81 84 85 84 79 75 76 76 74 70 72 76 75 75 74 68 62 55 56 63 71 78 75 69 62 53 54 62 64 54 40 37 38 38 40 42
85 85 82 79 79 82 84 84 84 84 84 82 86 89 88 91 94 92 89 88 87 84 81 80 78 76 77 81 83 82 78 76 78 78 75 73 75 77 75 73 71 70 67 55 51 56 61 67 70 69 64 59 57 58 58 52 44 43 38 38 42 43
85 86 85 83 84 85 87 86 87 86 83 82 85 86 85 86 88 88 85 84 83 81 79 78 77 75 76 78 81 81 78 75 74 75 74 73 75 76 73 69 65 63 62 56 48 45 45 48 52 54 53 54 58 59 55 47 45 43 34 33 40 41
85 86 86 87 87 85 84 83 82 79 77 79 81 84 85 83 85 86 85 84 83 81 81 79 78 76 75 77 79 79 76 69 65 67 69 71 71 71 69 68 67 62 61 60 51 41 38 37 39 43 44 41 43 51 55 50 44 39 35 37 38 38
83 83 86 89 88 86 85 84 81 75 73 76 79 82 83 82 85 87 87 85 82 80 80 79 76 73 71 74 77 75 71 65 60 59 61 66 70 69 67 67 68 66 66 68 61 48 40 34 30 35 41 40 36 37 43 47 44 38 39 41 39 39
85 84 86 89 88 88 86 82 80 77 76 78 81 83 83 84 87 88 86 84 80 78 79 78 74 72 68 69 73 70 65 63 59 55 57 63 68 70 69 65 64 64 65 66 63 55 46 41 39 40 40 40 37 33 32 36 37 34 33 34 35 35
87 84 85 88 88 87 83 79 82 84 83 84 85 85 86 87 88 88 86 84 82 80 80 78 73 70 66 65 70 67 62 63 60 55 55 58 61 62 63 63 62 62 61 61 62 60 56 53 53 52 47 43 41 37 33 32 33 33 30 28 26 25
85 84 85 88 87 82 78 79 87 88 85 85 86 85 85 88 88 87 86 84 84 82 79 77 74 73 71 68 70 67 62 62 62 59 57 55 53 51 52 55 57 59 59 59 59 59 59 57 55 53 50 47 45 43 41 38 38 35 33 32 30 24
83 83 84 87 84 79 78 84 90 87 83 84 84 83 84 86 86 85 85 84 84 83 79 77 74 75 75 72 71 69 64 63 64 63 59 55 52 49 49 50 53 56 58 60 61 61 60 58 55 52 50 49 47 46 45 44 44 41 38 36 34 28
81 81 82 84 80 78 83 87 89 86 83 84 85 84 85 85 83 82 84 85 83 82 78 76 75 75 75 73 70 69 67 65 66 64 60 56 52 50 50 50 53 56 58 62 66 67 67 63 58 53 50 49 47 46 48 48 47 46 43 39 36 34
77 79 81 81 78 82 88 88 89 88 85 84 84 84 83 83 82 82 84 84 81 78 76 75 75 73 72 69 68 70 69 66 64 62 59 55 51 50 49 48 52 54 56 60 63 66 68 68 63 58 54 51 50 50 52 51 48 46 45 42 40 40
72 76 79 79 78 84 90 89 91 91 86 84 84 83 82 81 81 82 83 83 79 75 74 74 71 69 68 67 68 71 69 65 64 62 59 55 52 52 51 51 55 57 57 59 61 63 67 68 66 62 58 54 52 53 53 52 50 48 47 45 43 42
70 73 76 78 79 83 88 90 91 90 88 87 85 83 82 82 83 83 82 81 77 73 74 74 69 66 68 68 69 69 66 64 63 60 57 53 51 53 54 54 56 56 55 56 58 59 62 64 64 62 60 55 52 54 54 53 52 52 51 47 44 42
68 71 77 78 77 82 89 91 89 87 89 89 85 82 81 82 83 82 81 78 74 73 74 73 69 66 66 69 70 67 64 64 62 59 56 52 52 55 55 55 56 56 56 57 58 58 59 60 61 59 58 54 51 52 54 54 54 55 55 50 44 42
Wind_Speed
18 18 18 18 17 16 16 16 14 12 10 7 7 8 10 10 10 11 13 12 11 8 5 6 7 7 7 9 11 10 10 10 10 10 10 9 8 7 7 6 5 5 5 5 5 5 4 4 4 3 4 5 5 5 5 6 6 7 7 6 7 7
18 19 18 18 18 17 17 16 13 12 9 8 9 10 10 9 10 10 10 9 8 7 6 7 8 7 7 8 10 10 10 10 9 9 8 8 7 6 6 5 5 5 5 5 5 6 7 6 4 2 3 4 5 6 6 4 5 5 6 7 7 6
19 20 18 17 17 17 17 16 14 13 11 11 11 10 10 10 10 8 7 6 6 7 7 8 9 8 7 7 7 9 9 9 8 8 8 7 6 6 6 5 5 5 4 4 6 10 10 9 6 2 2 4 5 5 5 3 5 5 7 7 5 5
18 19 17 16 16 17 17 16 15 13 12 12 11 10 10 10 9 8 7 7 7 8 7 8 10 9 8 7 7 7 8 8 7 7 6 6 4 3 4 4 4 4 4 6 9 10 7 4 4 2 3 5 5 4 5 3 8 9 8 7 6 5
17 18 17 17 17 16 16 15 14 12 12 12 11 10 9 9 8 8 8 8 7 7 7 8 10 10 9 8 8 8 8 8 7 7 6 7 7 5 5 7 6 4 5 7 6 4 4 4 3 3 4 4 4 4 5 5 9 9 9 8 7 6
17 17 16 16 16 16 15 14 12 12 11 11 9 9 9 8 8 9 8 7 7 6 7 8 7 8 9 9 10 11 10 9 9 9 6 7 9 7 6 7 7 3 3 3 1 2 2 3 4 4 3 3 4 4 5 5 8 9 11 10 9 7
16 17 15 14 14 14 14 12 11 11 11 10 9 9 9 9 9 9 8 7 6 6 6 7 6 6 7 8 10 10 9 8 8 8 5 4 5 4 3 2 2 1 1 0 1 1 1 2 3 4 3 3 4 4 5 5 7 10 11 11 10 8
15 16 15 14 14 13 13 11 11 11 9 9 9 9 9 9 9 9 8 7 6 5 5 5 5 5 6 6 6 5 5 5 4 4 3 1 2 1 1 1 1 1 0 1 1 1 2 2 2 3 3 3 4 4 4 4 5 8 10 11 10 8
15 16 15 14 13 12 12 11 11 10 9 10 9 9 9 9 9 8 7 6 6 5 5 5 4 5 5 5 4 4 4 4 3 3 3 1 1 1 0 1 0 1 1 0 0 1 2 2 2 2 3 3 4 4 4 3 4 7 8 9 8 7
15 15 14 14 13 12 12 12 11 10 9 10 10 9 10 9 8 7 6 6 6 5 5 4 5 5 5 5 5 5 5 5 4 4 3 2 2 1 1 1 1 1 1 1 1 2 2 3 3 2 3 4 4 4 4 3 4 6 7 7 6 7
15 14 14 13 13 12 12 12 11 10 9 10 10 10 10 9 8 7 6 6 6 5 4 4 5 5 6 7 7 6 5 5 5 4 4 3 2 2 2 2 2 3 3 2 2 2 3 3 3 3 3 4 5 4 4 4 4 4 5 6 7 7
16 14 14 13 13 13 12 12 11 10 10 10 11 10 9 8 7 6 6 6 5 4 4 4 5 6 6 6 7 6 5 5 5 5 4 4 3 2 2 2 3 2 2 2 2 3 3 3 4 4 5 5 5 5 5 5 6 5 4 4 6 6
16 15 15 14 13 13 13 12 11 10 11 11 11 9 8 7 7 6 6 5 5 3 3 4 7 7 4 4 3 3 4 6 5 5 5 4 4 3 2 2 2 2 2 2 2 3 3 3 3 5 6 6 6 6 6 6 6 6 6 5 5 4
17 16 16 15 14 13 12 12 11 10 10 11 9 8 7 7 6 6 5 4 4 3 3 4 6 6 2 3 2 0 1 6 6 5 5 4 3 2 2 2 2 2 2 2 2 3 3 3 3 4 6 6 6 6 6 7 6 6 6 6 7 6
17 17 17 15 14 13 12 11 11 10 10 10 8 7 6 7 6 6 5 4 3 3 4 4 4 5 3 2 4 3 1 5 6 5 5 5 4 2 2 3 3 3 3 2 2 2 2 3 4 5 5 5 5 5 5 7 6 7 7 7 7 7
18 18 17 16 14 13 12 11 11 10 10 10 8 7 7 6 6 5 4 3 3 3 4 3 3 4 5 3 4 4 2 4 6 6 6 5 3 3 2 2 3 4 3 2 1 1 2 4 5 4 4 4 4 5 6 6 7 7 7 7 7 7
18 19 18 17 15 14 13 12 11 10 10 9 8 7 7 7 6 5 4 3 3 2 1 2 2 2 4 4 4 5 4 5 6 5 5 4 3 3 3 3 3 4 4 3 2 1 2 5 5 4 4 4 4 5 6 7 7 7 7 7 7 7
18 19 18 17 15 15 15 13 12 11 10 9 8 7 6 6 5 4 4 3 3 2 2 2 1 1 2 4 5 5 5 6 5 5 4 3 2 2 3 3 3 3 4 3 2 1 2 6 6 4 4 4 5 6 6 6 7 7 7 7 7 7
18 19 18 18 17 16 15 14 12 11 10 9 8 8 7 6 5 4 4 3 3 3 4 3 3 3 3 4 5 5 5 5 4 4 3 1 1 1 2 2 2 2 2 2 1 1 2 7 7 5 5 5 5 7 7 7 7 7 7 7 6 6
19 19 18 17 16 16 15 14 13 12 11 10 9 8 7 6 5 5 4 4 3 3 5 5 4 4 4 4 4 4 4 4 3 3 2 1 1 2 2 2 2 1 1 1 2 3 6 9 8 7 6 5 6 7 7 8 7 7 6 6 5 5
19 19 17 15 15 16 16 14 13 13 12 12 10 10 8 6 6 6 5 5 4 4 5 6 5 4 5 4 4 3 3 4 3 2 2 1 1 2 1 1 1 0 1 3 3 4 9 12 9 7 6 4 5 6 7 7 7 7 6 5 5 5
20 19 18 18 16 16 17 15 14 14 13 11 10 10 9 7 6 6 7 6 5 5 6 6 5 4 4 3 3 2 2 2 2 1 1 1 1 1 1 2 2 2 1 3 3 4 7 9 8 9 8 5 4 4 5 6 6 6 5 5 5 4
19 18 18 19 17 17 17 15 14 13 12 10 9 9 9 8 7 7 8 8 7 7 6 6 5 4 3 3 2 1 1 1 1 1 2 2 1 1 2 3 3 3 3 4 4 3 2 3 5 6 9 6 4 4 3 5 6 5 6 6 5 4
20 19 19 20 18 17 16 14 12 11 11 11 10 11 10 8 7 8 8 8 9 10 8 6 5 3 2 2 1 1 1 1 1 1 1 2 2 2 3 3 3 3 3 4 5 2 1 2 3 2 4 5 6 6 3 5 7 5 6 6 5 4
22 20 20 20 19 17 15 14 13 12 13 12 11 11 10 9 9 9 9 8 9 9 7 5 5 2 0 1 1 1 0 1 1 2 2 3 4 4 4 4 3 3 1 2 4 4 1 1 1 2 3 3 3 3 1 8 8 4 5 5 5 4
22 21 21 20 20 19 17 17 17 16 15 13 11 11 11 12 11 11 11 10 9 8 6 5 4 2 1 2 1 1 1 3 3 4 4 4 5 5 5 5 4 3 3 3 4 4 3 3 2 4 4 4 2 2 2 8 8 4 5 4 4 4
24 23 22 21 22 21 20 20 19 16 15 14 13 12 13 13 13 12 12 10 9 8 6 4 2 1 1 1 1 2 3 4 4 5 5 5 6 6 5 5 5 4 4 3 2 3 4 4 4 5 5 5 4 4 4 1 2 2 5 5 5 4
25 23 23 23 23 23 21 20 19 16 14 14 14 14 15 14 13 13 12 11 9 7 5 2 1 1 1 1 2 3 3 4 5 5 6 6 7 7 6 6 6 6 5 4 3 3 4 4 4 5 5 5 5 5 5 5 4 2 1 4 6 5
23 23 23 24 24 23 20 19 17 15 13 13 15 16 15 14 13 13 13 11 9 7 4 2 2 3 3 2 2 4 4 5 6 6 7 8 8 8 8 8 8 7 7 6 6 5 5 4 4 4 4 4 5 5 5 6 5 4 4 0 4 4
24 22 23 25 24 22 21 19 16 14 13 15 17 16 15 15 15 14 12 11 10 7 5 4 4 4 4 3 3 4 5 6 6 7 8 9 9 9 9 10 10 9 9 8 8 7 6 6 5 5 4 3 3 3 3 4 4 4 4 3 1 2
24 23 24 25 24 23 21 19 17 15 16 18 18 17 17 17 17 14 13 12 10 7 6 6 5 5 5 5 4 5 6 7 7 8 8 9 9 9 9 10 10 11 11 10 9 9 9 8 7 6 6 6 5 5 4 4 5 4 4 3 2 1
25 24 25 25 24 23 21 19 17 18 19 20 18 18 19 19 18 15 14 13 10 8 8 7 6 6 5 6 5 6 7 7 8 8 8 9 9 9 9 9 10 10 10 10 9 9 9 8 7 7 8 7 6 6 6 5 5 5 5 4 3 2
27 26 25 25 25 23 22 20 19 21 22 21 18 19 20 19 18 16 15 14 12 10 10 8 7 7 6 7 7 7 7 7 8 8 9 9 10 10 10 10 10 10 10 9 9 9 9 8 8 7 7 7 6 6 7 6 6 6 5 5 5 4
27 26 25 24 25 23 22 21 21 22 22 21 21 21 20 19 19 17 15 15 13 11 10 9 7 7 8 8 8 8 8 9 9 9 10 10 10 10 10 11 10 10 10 9 10 10 9 8 8 7 7 7 7 7 7 6 6 7 7 7 7 6
27 27 26 25 25 23 22 21 21 22 21 21 22 21 20 20 19 17 17 16 13 11 10 9 8 8 9 10 9 9 9 10 10 10 10 10 10 10 11 10 10 10 10 10 10 10 9 8 8 8 8 8 8 7 7 7 7 7 8 8 7 7
27 28 26 25 25 23 22 21 21 22 22 23 24 22 21 20 19 18 18 16 13 11 10 9 8 9 11 11 11 10 11 11 10 10 10 10 10 10 10 10 10 10 10 10 10 9 8 8 8 9 9 8 8 7 7 7 7 8 8 8 7 7
28 28 27 26 25 24 23 22 22 23 24 26 25 23 22 20 18 17 17 16 12 10 10 9 9 11 12 12 11 11 12 11 11 11 10 10 10 10 10 10 10 10 9 9 8 8 7 7 8 8 8 8 7 6 6 6 7 7 6 6 7 7
Wind_Direction
165 164 158 155 154 155 159 161 160 159 163 159 148 144 141 141 136 118 103 100 101 115 124 94 107 126 133 148 156 163 167 161 158 160 161 162 165 169 178 188 199 209 219 224 231 237 246 261 271 282 290 303 308 288 285 316 338 13 22 29 31 5
167 163 158 156 156 158 160 159 158 158 158 151 140 136 140 143 142 127 108 110 122 145 155 138 135 134 138 153 162 166 169 169 166 167 166 167 170 175 183 191 201 212 225 231 234 226 226 233 241 272 294 311 303 280 285 342 13 31 39 36 20 357
168 162 159 156 156 158 159 159 156 154 151 147 138 139 155 159 162 160 147 149 161 167 157 154 154 150 154 158 168 170 173 175 174 175 175 178 180 186 193 199 210 212 220 228 230 227 226 222 215 229 315 299 284 284 299 3 46 52 54 44 25 5
169 161 159 158 156 158 161 162 157 155 152 152 150 156 171 172 174 174 170 173 174 172 162 157 152 152 155 150 163 168 171 176 179 185 182 183 178 183 188 196 204 192 214 226 228 238 251 238 214 238 298 295 291 314 316 29 61 59 63 52 42 26
169 162 162 162 160 161 164 163 160 158 153 156 161 165 174 176 179 177 178 184 180 175 163 160 156 155 159 160 170 172 176 178 179 187 187 190 195 208 201 204 204 181 220 232 236 265 318 327 316 300 299 307 317 333 331 32 59 63 73 61 53 45
170 167 167 165 160 161 164 165 162 159 155 158 166 170 177 179 184 185 187 190 188 184 172 176 177 166 169 183 192 186 182 182 182 186 194 200 200 215 219 209 207 188 223 241 293 320 329 322 319 308 310 330 335 346 347 27 60 70 77 69 61 57
172 170 171 168 162 163 164 166 162 159 161 163 170 177 182 182 186 190 190 195 195 193 185 188 192 180 179 194 199 189 181 187 188 178 186 208 187 212 243 199 186 176 252 321 6 321 325 325 315 315 331 346 346 360 0 22 64 77 78 71 60 62
173 172 172 171 169 168 166 165 160 162 167 167 173 180 184 185 188 192 191 198 200 198 198 192 193 195 192 196 194 180 178 189 183 147 145 203 150 162 290 67 100 156 135 349 31 348 324 318 320 322 337 357 360 10 21 26 63 81 83 77 64 65
174 174 171 173 175 171 167 163 160 166 168 169 180 182 183 187 189 193 193 198 200 195 204 201 198 201 193 196 192 179 178 170 148 126 122 85 93 111 315 118 186 159 117 26 47 7 325 317 325 326 344 19 21 17 36 49 76 89 91 88 68 51
174 175 172 174 177 171 168 164 165 170 167 171 184 186 183 190 192 191 190 197 198 193 203 204 204 208 195 194 192 180 174 158 139 123 121 101 73 50 13 46 21 24 52 39 32 9 336 324 324 348 6 26 43 36 37 45 71 94 102 98 74 38
174 177 175 176 175 171 168 165 168 169 167 173 184 189 187 191 193 191 191 194 198 196 203 201 209 220 209 197 188 177 169 152 132 116 109 100 77 51 35 24 28 29 21 20 16 358 345 341 341 10 33 32 40 47 47 46 51 77 97 100 103 71
176 181 179 176 172 171 170 167 169 167 170 176 183 189 187 190 192 190 190 191 196 197 204 208 210 220 232 217 185 167 161 142 121 113 100 88 74 57 50 23 29 36 23 22 17 3 3 8 0 6 34 50 49 47 53 58 55 64 71 74 108 104
178 182 180 176 172 171 171 170 170 168 171 175 183 187 184 192 194 191 193 193 195 195 216 222 199 195 255 264 194 160 148 129 111 103 92 80 73 60 55 32 23 30 28 26 24 24 23 29 36 28 31 44 51 47 54 64 61 63 64 49 58 76
179 181 178 175 175 174 172 171 170 171 174 177 181 181 184 195 197 199 197 192 192 197 226 223 192 177 268 289 165 135 115 111 100 93 83 69 67 65 54 28 10 15 15 19 36 41 36 27 39 50 41 38 46 47 54 64 67 68 67 62 52 49
179 179 175 175 176 175 173 171 172 173 177 179 178 179 189 197 199 202 195 190 195 208 229 221 185 170 175 196 145 127 75 84 89 86 74 61 58 56 41 21 13 17 4 11 41 25 32 46 37 42 44 42 47 51 60 63 63 67 66 68 64 55
178 177 174 176 174 173 173 172 174 176 178 177 176 184 193 198 197 195 189 198 204 207 230 227 198 175 156 160 146 128 106 76 81 76 61 50 42 37 19 7 17 22 8 353 24 12 37 67 61 44 41 49 52 52 64 66 60 62 62 63 64 58
177 177 175 174 172 173 174 173 174 176 178 175 174 184 192 195 189 184 190 201 203 183 196 208 212 185 137 137 139 128 117 87 73 61 54 42 31 22 3 359 7 15 7 333 314 354 79 96 88 68 58 59 62 60 64 66 63 63 62 60 58 56
177 177 174 173 172 174 175 174 175 174 177 177 175 180 185 187 177 174 184 181 181 153 131 142 129 100 101 116 121 113 97 75 55 42 44 39 42 27 1 3 353 351 354 338 327 339 103 117 111 103 92 70 63 68 68 66 65 63 61 60 56 55
177 176 173 174 172 173 174 173 175 173 177 181 176 172 168 167 164 160 162 158 164 150 127 118 109 97 91 96 98 89 72 57 37 29 26 356 16 8 344 345 332 328 333 1 33 302 121 119 117 109 102 83 67 69 69 66 65 64 62 59 57 57
175 172 170 172 173 173 175 174 175 173 177 181 177 169 160 156 156 147 144 145 144 137 124 119 113 99 88 80 76 67 58 46 23 20 22 347 328 333 328 303 300 315 269 124 115 175 134 115 113 109 104 89 71 70 72 70 68 67 65 61 58 56
172 169 167 174 182 180 177 175 176 178 181 180 174 167 158 152 148 136 135 142 135 125 123 121 113 96 83 71 68 58 37 27 13 10 19 359 322 309 299 260 240 226 208 148 138 166 132 121 130 133 126 110 90 82 77 78 75 71 68 64 62 58
170 170 171 178 186 185 182 180 180 183 183 177 174 171 160 147 139 130 131 134 132 127 125 120 110 102 91 70 61 43 2 356 354 338 324 315 322 293 242 199 181 156 131 132 165 185 140 142 172 168 155 155 139 115 86 83 81 77 78 69 67 64
170 174 177 179 184 186 184 185 186 183 178 169 161 157 148 143 143 139 137 137 138 134 128 126 115 100 86 61 36 19 356 343 323 304 271 248 259 223 177 168 173 155 129 130 157 199 170 188 226 191 177 191 174 158 137 116 102 87 86 74 69 64
172 176 181 182 184 185 182 184 184 174 166 158 147 142 135 137 145 143 142 144 150 148 138 126 110 88 69 35 4 354 337 311 290 279 211 196 167 143 144 147 152 146 156 150 142 161 235 248 287 260 218 230 187 181 195 150 134 114 105 86 74 68
173 176 180 182 181 179 175 173 166 152 149 146 144 148 146 146 150 150 148 143 143 144 134 114 103 103 61 340 344 352 303 166 137 117 125 136 129 119 116 121 126 119 118 122 127 128 94 155 338 356 332 311 204 194 151 149 150 139 134 109 89 83
175 178 180 180 179 175 172 168 160 155 156 154 156 163 165 163 160 158 153 141 133 131 123 109 101 102 307 320 355 71 115 118 114 111 109 113 111 106 100 98 103 103 88 78 112 123 99 93 64 42 30 19 10 352 56 159 167 145 141 134 121 112
178 179 179 180 179 176 175 170 167 169 171 170 170 171 171 167 161 159 152 140 133 128 122 107 83 3 296 304 81 103 113 110 111 110 103 103 100 98 96 88 84 91 97 89 107 125 111 105 83 59 47 47 53 23 26 128 166 138 152 159 148 133
179 178 179 180 179 180 178 174 176 180 179 178 173 167 167 165 160 157 151 143 137 131 124 107 69 177 155 130 120 115 113 107 108 107 102 99 93 93 93 86 82 84 89 83 82 109 104 96 92 75 57 51 53 47 43 34 13 338 231 176 165 162
181 181 181 180 180 182 182 181 181 178 178 175 165 160 164 165 159 155 150 145 140 141 147 147 153 152 139 133 124 116 113 106 104 104 102 98 92 91 89 86 85 83 87 83 72 83 92 83 79 70 57 53 49 50 57 45 22 349 338 286 165 170
184 184 185 182 181 184 187 185 178 172 174 165 156 159 164 164 160 155 152 147 141 145 159 157 154 153 147 148 132 119 118 108 102 101 100 98 94 92 89 87 87 83 85 87 79 77 79 76 71 55 42 47 53 54 64 54 35 18 7 10 65 139
185 184 187 185 184 188 188 182 176 175 172 161 158 164 167 167 166 160 155 151 146 152 162 160 160 159 153 155 141 122 119 112 106 102 100 99 96 94 94 92 89 85 82 83 83 80 75 74 74 67 57 55 56 50 54 57 36 25 26 17 11 87
185 187 187 185 187 190 184 177 177 176 170 164 167 171 170 171 171 166 159 154 153 160 165 164 165 164 158 159 151 132 123 118 110 105 103 102 101 100 100 96 91 87 84 81 82 81 78 76 75 73 66 62 64 59 53 52 41 33 32 15 350 1
186 188 186 185 187 187 182 177 177 175 169 167 172 175 173 172 171 169 163 161 164 166 167 166 168 171 166 160 157 144 131 123 115 110 107 104 104 104 101 99 94 90 88 84 82 83 81 76 74 77 76 69 67 64 55 48 44 41 35 27 20 9
186 187 184 185 186 184 182 180 177 174 170 171 177 178 176 173 171 170 167 168 170 169 168 169 172 172 168 163 159 149 133 125 120 114 111 108 107 105 102 101 98 95 93 87 85 85 82 79 79 79 81 76 68 61 54 46 45 45 39 38 35 14
186 186 184 185 186 184 181 179 178 174 172 179 182 178 176 175 172 171 171 170 172 171 166 166 172 170 166 165 158 147 133 126 123 118 115 114 110 107 105 104 102 97 94 90 89 89 87 86 85 81 79 77 70 61 52 45 45 46 42 40 36 18
187 187 186 185 187 185 180 179 180 176 177 183 182 177 173 172 172 172 171 169 169 169 163 162 168 166 164 164 156 146 136 130 127 123 119 118 115 111 109 107 105 101 97 96 94 95 96 91 86 82 78 75 72 63 52 46 45 44 41 38 32 23
187 188 187 186 187 184 179 178 179 181 184 183 179 175 171 169 169 170 170 169 166 163 166 168 169 167 164 162 155 145 139 134 130 127 124 121 118 116 114 111 110 107 104 105 102 100 100 95 88 84 79 77 77 67 55 48 46 41 36 35 32 24